Adak, AK

4:03 PM HDT on October 22, 2017 (GMT -0900)
Adak

Weather History for PADK - October, 2012

Change the Weather History Date:

Tuesday, October 16, 2012

  Actual Average Record
Temperature  
Mean Temperature 38 °F -  
Max Temperature 41 °F 46 °F 53 °F (2005)
Min Temperature 35 °F 39 °F 32 °F (1977)
Degree Days  
Heating Degree Days 27    
Moisture  
Dew Point 33 °F    
Average Humidity 82    
Maximum Humidity 93    
Minimum Humidity 61    
Precipitation  
Precipitation 0.00 in - - ()
Sea Level Pressure  
Sea Level Pressure 30.33 in    
Wind  
Wind Speed 2 mph (NNW)    
Max Wind Speed 10 mph    
Max Gust Speed -    
Visibility 10 miles    
Events      
Averages and records for this station are not official NWS values.
T = Trace of Precipitation, MM = Missing Value Source: NWS Daily Summary

Daily Weather History Graph

Daily Weather History Graph

Search for Another Location

Airport or City:

Trip Planner

Search our weather history database for the weather conditions in past years. The results will help you decide how hot, cold, wet, or windy it might be!

Date:

Astronomy

Oct. 16, 2012 Rise Set
Actual Time 9:14 AM HDT 7:48 PM HDT
Civil Twilight 8:40 AM HDT 8:22 PM HDT
Nautical Twilight 8:01 AM HDT 9:01 PM HDT
Astronomical Twilight 7:22 AM HDT 9:40 PM HDT
Moon 11:12 AM HDT (10/16) 8:25 PM HDT (10/16)
Length of Visible Light 11h 42m
Length of Day
10h 34m
Waxing Crescent, 3% of the Moon is Illuminated
Oct 16
Waxing Crescent
Oct 21
First Quarter
Oct 29
Full
Nov 6
Last Quarter
Nov 13
New

Hourly Weather History & Observations

Time (HDT) Temp. Windchill Dew Point Humidity Pressure Visibility Wind Dir Wind Speed Gust Speed Precip Events Conditions
12:16 AM 35.6 °F - 30.2 °F 81% 30.24 in 10.0 mi Calm Calm - N/A   Partly Cloudy
12:36 AM 37.4 °F - 35.6 °F 93% 30.24 in 10.0 mi Calm Calm - N/A   Mostly Cloudy
12:56 AM 37.4 °F - 33.8 °F 87% 30.25 in 10.0 mi Calm Calm - N/A   Overcast
1:16 AM 37.4 °F 31.4 °F 35.6 °F 93% 30.25 in 10.0 mi NE 8.1 mph - N/A   Overcast
1:36 AM 37.4 °F 33.8 °F 33.8 °F 87% 30.26 in 10.0 mi NNE 4.6 mph - N/A   Mostly Cloudy
1:56 AM 37.4 °F 34.9 °F 33.8 °F 87% 30.26 in 10.0 mi NNW 3.5 mph - N/A   Overcast
2:16 AM 35.6 °F - 33.8 °F 93% 30.26 in 10.0 mi Calm Calm - N/A   Mostly Cloudy
2:36 AM 35.6 °F 30.7 °F 33.8 °F 93% 30.27 in 10.0 mi North 5.8 mph - N/A   Overcast
2:56 AM 35.6 °F 32.8 °F 33.8 °F 93% 30.27 in 10.0 mi North 3.5 mph - N/A   Overcast
3:16 AM 35.6 °F 31.7 °F 33.8 °F 93% 30.27 in 10.0 mi NNW 4.6 mph - N/A   Overcast
3:36 AM 37.4 °F 34.9 °F 33.8 °F 87% 30.28 in 10.0 mi NNW 3.5 mph - N/A   Overcast
3:56 AM 37.4 °F 34.9 °F 33.8 °F 87% 30.28 in 10.0 mi NNW 3.5 mph - N/A   Overcast
4:16 AM 37.4 °F - 33.8 °F 87% 30.28 in 10.0 mi Calm Calm - N/A   Overcast
4:36 AM 35.6 °F 32.8 °F 33.8 °F 93% 30.29 in 10.0 mi NW 3.5 mph - N/A   Overcast
4:56 AM 37.4 °F 32.1 °F 33.8 °F 87% 30.28 in 10.0 mi NE 6.9 mph - N/A   Overcast
5:16 AM 37.4 °F 34.9 °F 33.8 °F 87% 30.29 in 10.0 mi North 3.5 mph - N/A   Overcast
5:36 AM 37.4 °F - 33.8 °F 87% 30.29 in 10.0 mi Calm Calm - N/A   Overcast
5:56 AM 37.4 °F - 33.8 °F 87% 30.29 in 10.0 mi Calm Calm - N/A   Overcast
6:16 AM 35.6 °F - 33.8 °F 93% 30.29 in 10.0 mi Calm Calm - N/A   Overcast
6:36 AM 37.4 °F - 33.8 °F 87% 30.29 in 10.0 mi Calm Calm - N/A   Overcast
6:56 AM 35.6 °F 32.8 °F 33.8 °F 93% 30.29 in 10.0 mi WSW 3.5 mph - N/A   Overcast
7:16 AM 35.6 °F - 33.8 °F 93% 30.29 in 10.0 mi Calm Calm - N/A   Overcast
7:36 AM 35.6 °F 32.8 °F 33.8 °F 93% 30.30 in 10.0 mi WSW 3.5 mph - N/A   Overcast
7:56 AM 35.6 °F - 33.8 °F 93% 30.30 in 10.0 mi Calm Calm - N/A   Overcast
8:16 AM 35.6 °F - 33.8 °F 93% 30.30 in 10.0 mi Calm Calm - N/A   Overcast
8:36 AM 37.4 °F - 32.0 °F 81% 30.31 in 10.0 mi Calm Calm - N/A   Overcast
8:56 AM 35.6 °F - 32.0 °F 87% 30.31 in 10.0 mi Calm Calm - N/A   Overcast
9:16 AM 35.6 °F - 32.0 °F 87% 30.32 in 10.0 mi Calm Calm - N/A   Overcast
9:36 AM 35.6 °F 32.8 °F 33.8 °F 93% 30.32 in 10.0 mi WSW 3.5 mph - N/A   Overcast
9:56 AM 37.4 °F - 33.8 °F 87% 30.32 in 10.0 mi Calm Calm - N/A   Overcast
10:16 AM 37.4 °F - 32.0 °F 81% 30.33 in 10.0 mi Calm Calm - N/A   Overcast
10:36 AM 37.4 °F - 33.8 °F 87% 30.34 in 10.0 mi Calm Calm - N/A   Overcast
10:56 AM 37.4 °F - 33.8 °F 87% 30.34 in 10.0 mi Calm Calm - N/A   Overcast
11:16 AM 37.4 °F - 33.8 °F 87% 30.34 in 10.0 mi Calm Calm - N/A   Overcast
11:36 AM 39.2 °F 37.0 °F 33.8 °F 81% 30.35 in 10.0 mi SW 3.5 mph - N/A   Overcast
11:56 AM 39.2 °F - 33.8 °F 81% 30.35 in 10.0 mi Calm Calm - N/A   Overcast
12:16 PM 39.2 °F - 32.0 °F 75% 30.36 in 10.0 mi Calm Calm - N/A   Overcast
12:36 PM 41.0 °F - 28.4 °F 61% 30.36 in 10.0 mi Calm Calm - N/A   Overcast
12:56 PM 41.0 °F 35.8 °F 30.2 °F 65% 30.36 in 10.0 mi NNW 8.1 mph - N/A   Overcast
1:16 PM 39.2 °F 33.6 °F 32.0 °F 75% 30.36 in 10.0 mi NW 8.1 mph - N/A   Overcast
1:36 PM 41.0 °F 38.0 °F 30.2 °F 65% 30.36 in 10.0 mi NNW 4.6 mph - N/A   Overcast
1:56 PM 41.0 °F 37.1 °F 32.0 °F 70% 30.36 in 10.0 mi NNW 5.8 mph - N/A   Overcast
2:16 PM 41.0 °F - 30.2 °F 65% 30.36 in 10.0 mi Calm Calm - N/A   Overcast
2:36 PM 41.0 °F - 32.0 °F 70% 30.36 in 10.0 mi Calm Calm - N/A   Overcast
2:56 PM 41.0 °F 34.7 °F 35.6 °F 81% 30.36 in 10.0 mi North 10.4 mph - N/A   Overcast
3:16 PM 39.2 °F 33.0 °F 33.8 °F 81% 30.35 in 10.0 mi North 9.2 mph - N/A   Overcast
3:36 PM 39.2 °F 32.5 °F 33.8 °F 81% 30.35 in 10.0 mi North 10.4 mph - N/A   Overcast
3:56 PM 39.2 °F 32.5 °F 33.8 °F 81% 30.35 in 10.0 mi North 10.4 mph - N/A   Overcast
4:16 PM 41.0 °F 36.4 °F 32.0 °F 70% 30.35 in 10.0 mi NNW 6.9 mph - N/A   Overcast
4:36 PM 39.2 °F 34.2 °F 30.2 °F 70% 30.35 in 10.0 mi North 6.9 mph - N/A   Overcast
4:56 PM 41.0 °F - 30.2 °F 65% 30.35 in 10.0 mi Calm Calm - N/A   Overcast
5:16 PM 41.0 °F - 30.2 °F 65% 30.35 in 10.0 mi Calm Calm - N/A   Overcast
5:36 PM 39.2 °F 34.2 °F 30.2 °F 70% 30.35 in 10.0 mi NW 6.9 mph - N/A   Overcast
5:56 PM 39.2 °F 35.0 °F 30.2 °F 70% 30.36 in 10.0 mi NW 5.8 mph - N/A   Overcast
6:16 PM 39.2 °F 35.9 °F 30.2 °F 70% 30.36 in 10.0 mi West 4.6 mph - N/A   Overcast
6:36 PM 39.2 °F - 32.0 °F 75% 30.36 in 10.0 mi Calm Calm - N/A   Overcast
6:56 PM 39.2 °F - 32.0 °F 75% 30.36 in 10.0 mi Calm Calm - N/A   Overcast
7:16 PM 37.4 °F 32.1 °F 32.0 °F 81% 30.37 in 10.0 mi North 6.9 mph - N/A   Overcast
7:36 PM 37.4 °F 33.8 °F 32.0 °F 81% 30.37 in 10.0 mi NNW 4.6 mph - N/A   Overcast
7:56 PM 37.4 °F 33.8 °F 32.0 °F 81% 30.37 in 10.0 mi NNW 4.6 mph - N/A   Overcast
8:16 PM 37.4 °F 33.8 °F 32.0 °F 81% 30.37 in 10.0 mi North 4.6 mph - N/A   Overcast
8:36 PM 37.4 °F - 32.0 °F 81% 30.38 in 10.0 mi Calm Calm - N/A   Overcast
8:56 PM 37.4 °F - 32.0 °F 81% 30.38 in 10.0 mi Calm Calm - N/A   Overcast
9:16 PM 37.4 °F - 33.8 °F 87% 30.39 in 10.0 mi Calm Calm - N/A   Overcast
9:36 PM 37.4 °F - 32.0 °F 81% 30.39 in 10.0 mi Calm Calm - N/A   Overcast
9:56 PM 37.4 °F - 30.2 °F 75% 30.39 in 10.0 mi Calm Calm - N/A   Overcast
10:16 PM 35.6 °F 31.7 °F 32.0 °F 87% 30.39 in 10.0 mi NNW 4.6 mph - N/A   Overcast
10:36 PM 35.6 °F 31.7 °F 32.0 °F 87% 30.40 in 10.0 mi NNW 4.6 mph - N/A   Overcast
10:56 PM 37.4 °F - 32.0 °F 81% 30.40 in 10.0 mi Calm Calm - N/A   Overcast
11:16 PM 35.6 °F - 32.0 °F 87% 30.41 in 10.0 mi Calm Calm - N/A   Overcast
11:36 PM 35.6 °F - 32.0 °F 87% 30.41 in 10.0 mi Calm Calm - N/A   Overcast
11:56 PM 35.6 °F 31.7 °F 32.0 °F 87% 30.41 in 10.0 mi SW 4.6 mph - N/A   Overcast